Vertical_Velocity
-0 -0 -0 -0 -0 -1 -1 -1 -1 -1 -1 -1 -1 -1 -1 -1 -1 -0 0 1 0 -1 -1 -0 -0 -1 -1 -1 -1 -1 -1 -2 -2 -2 -1 -2 -1 -1 -0 -0 -0 -1 -1 -1 -0 1 1 1 1 1 2 2 1 -0 -0 0 0 0 0 0 0 -0 -0 -0 -0 -0 0 0 0 0 0 0 0 0 0 0 0 -0 -0 -0 -0 -0 -0 -0 -0 -0 -0 -0 -0 -0 -0 -0 -0 -0 -0 -0 0 0 0 0 -0 -0 -0
-0 -1 -1 -0 -0 -0 -1 -1 -1 -1 -1 -1 -1 -1 -1 -1 -1 -1 0 1 0 -0 -1 -1 -1 -1 -1 -1 -1 -1 -1 -2 -2 -1 -1 -2 -1 -1 -1 -0 -1 -1 -1 -1 -0 1 1 1 1 2 2 2 1 0 0 0 0 0 0 -0 -0 -0 -1 -1 -1 -0 -0 -0 0 0 1 0 0 0 0 0 0 0 -0 -0 -0 -0 -0 -0 -0 -0 0 -0 -0 -0 -0 -0 -0 -0 -0 -0 -0 -0 0 0 -0 -0 -0
-0 -0 -0 -1 -1 -1 -1 -1 -1 -1 -1 -1 -1 -1 -1 -1 -1 -1 0 1 1 0 -0 -1 -1 -1 -0 -1 -1 -1 -1 -1 -1 -1 -1 -1 -1 -1 -1 -1 -1 -1 -1 -1 -1 0 1 1 1 2 2 2 2 1 1 1 1 1 0 -0 -0 -1 -1 -1 -1 -1 -0 -0 -0 0 1 0 0 1 1 0 0 0 0 0 0 -0 -0 0 0 0 0 -0 -0 -0 0 -0 -0 -0 -0 -0 -0 -0 -0 -0 -0 -0 -0
1 1 1 -0 -0 -1 -1 -1 -1 -1 -0 -0 -1 -1 -1 -1 -1 -1 -0 2 1 -0 -1 -1 -0 -1 -1 -1 -0 0 0 0 0 -0 -1 -1 -1 -1 -1 -1 -1 -1 -1 -2 -1 -0 1 0 1 1 2 1 1 1 1 1 1 1 0 -0 -0 -1 -1 -1 -1 -1 -1 -1 -0 0 0 0 0 0 1 1 0 0 0 0 0 0 -0 0 0 0 0 0 -0 -0 0 0 0 0 -0 -0 -0 0 0 0 -0 -0 -0
0 1 1 1 0 -0 -1 -1 -1 -1 -0 -0 -0 -1 -1 -1 -1 -1 -2 1 2 2 -1 -0 1 2 2 2 2 1 0 -0 -1 -1 -2 -1 -1 -0 0 0 -0 -1 -1 -2 -2 -1 0 0 0 0 0 0 0 -0 -0 0 0 0 0 -0 -0 -0 -0 -0 -0 -0 -0 -0 -0 -0 0 0 0 0 1 1 1 0 0 0 0 0 0 0 0 0 0 0 0 0 0 0 0 0 0 0 0 0 0 0 0 0 0
-1 -0 -0 0 0 0 -0 -1 -1 -1 -1 -0 -0 -0 -1 -1 -0 -1 -3 -4 -1 1 2 1 2 3 2 2 1 -0 -1 -2 -2 -2 -2 -2 -2 -1 -1 -0 -0 -0 -0 -2 -2 -2 -0 -0 -0 -0 -0 -0 -0 -1 -1 -0 -0 -0 -0 -0 -0 -0 -0 -0 -0 -0 -0 -0 -1 -1 -0 0 1 1 0 1 1 1 1 0 0 0 0 0 0 0 0 0 0 0 0 0 0 0 0 0 0 1 1 1 1 1 1
-2 -1 -1 -0 0 0 0 -0 -1 -1 -1 -1 -0 -0 -1 -1 -0 -0 -1 -4 -4 -2 2 2 1 -1 -3 -2 -2 -3 -3 -3 -3 -2 -3 -2 -2 -2 -2 -2 -1 -0 -0 -1 -2 -2 -1 -0 -0 -0 -0 -0 -0 -1 -1 -0 -0 -0 -0 -0 -0 -0 -0 -0 -0 -0 -0 -0 -0 -1 -1 -0 0 0 0 0 1 1 1 1 1 1 1 1 1 1 1 1 1 1 1 1 1 1 1 1 1 1 1 1 1 1 1
-2 -2 -1 -1 -0 -0 -0 -0 -0 -1 -1 -1 -0 -0 -0 -0 -0 -0 1 -2 -4 -4 -1 -1 -3 -4 -6 -5 -4 -4 -3 -3 -3 -3 -3 -2 -2 -2 -2 -2 -1 0 0 -1 -2 -2 -1 -0 -0 -0 -0 0 -0 -0 -1 -1 -0 -0 -0 -0 -0 -0 -0 -0 -0 0 0 -0 -0 -0 -0 -0 -0 0 0 0 0 1 1 1 1 1 1 1 1 1 1 1 1 1 1 1 1 1 1 1 1 1 1 1 1 1 1
-2 -2 -1 -1 -1 -1 -0 -0 -0 -0 -1 -1 -0 0 0 -0 -0 -0 0 -0 -2 -3 -1 -0 -1 -2 -3 -3 -3 -2 -2 -2 -2 -2 -2 -3 -2 -2 -2 -1 -1 -0 -0 -1 -1 -1 -0 0 0 0 0 1 0 -0 -1 -1 -1 -0 -0 -0 -0 -0 -0 -0 -0 0 0 0 0 0 0 -0 -0 0 0 0 0 1 1 1 1 1 1 1 1 1 1 1 1 1 1 1 1 1 1 1 1 1 1 1 1 1 1
-3 -2 -1 -1 -1 -1 -1 -1 -0 -0 -0 -0 -0 0 1 0 0 0 1 0 -1 -2 -2 -0 0 1 1 0 -0 -1 -2 -2 -2 -2 -1 -2 -2 -2 -1 -1 -1 -0 -0 -1 -1 -1 0 1 1 1 1 1 0 -0 -2 -2 -1 -0 0 -0 -0 -0 -0 -0 -0 0 0 0 0 0 0 -0 -0 0 0 0 1 1 1 1 1 1 1 1 1 1 1 1 1 0 1 1 1 1 1 1 1 1 1 1 1 1 1
-3 -2 -1 -1 -2 -2 -2 -1 -1 -0 -0 -0 -0 -0 1 1 1 1 0 -0 -0 -1 -1 -3 -3 -1 -0 -0 0 0 0 0 -0 -1 -1 -1 -2 -2 -2 -1 -1 -1 -1 -1 -2 -1 0 1 1 1 1 1 1 -0 -2 -2 -1 -0 0 0 0 0 -0 -0 -0 -0 0 0 0 0 0 0 0 0 0 0 0 0 0 1 1 1 1 1 1 1 1 0 0 0 0 0 0 0 0 0 0 0 1 1 1 1 1
-3 -2 -1 -1 -2 -2 -2 -2 -1 -1 -0 -0 -0 -0 0 1 1 1 1 -0 -0 -0 1 -1 -2 -2 -2 -1 -1 -1 -0 0 -0 -1 -1 -2 -2 -2 -2 -2 -1 -1 -1 -2 -2 -1 -0 1 1 1 2 2 1 0 -1 -1 -1 -0 0 0 0 0 -0 -0 -0 -0 -0 -0 0 0 0 0 0 0 0 0 0 0 0 0 1 1 1 1 0 0 0 0 0 0 0 0 0 0 0 0 0 0 0 0 0 1 1
-3 -2 -2 -1 -2 -2 -2 -3 -2 -1 -1 -0 -0 -0 -0 1 1 2 2 1 -0 -0 1 1 0 0 -0 -0 0 -0 -1 -1 -1 -2 -2 -2 -2 -2 -3 -2 -2 -1 -1 -2 -2 -2 -0 0 1 1 2 2 1 1 -0 -1 -1 -0 0 0 0 0 -0 -0 -0 -0 -0 -0 -0 -0 -0 0 0 0 0 0 0 0 0 0 0 1 1 1 0 0 0 0 0 0 0 0 0 0 0 0 0 0 0 0 0 0 0
-2 -2 -2 -2 -1 -1 -2 -2 -3 -2 -2 -1 -0 -0 -0 0 1 1 2 1 0 -0 -0 -0 1 1 0 1 1 0 0 -0 -1 -1 -2 -2 -2 -2 -3 -2 -2 -2 -2 -2 -2 -2 -0 0 0 1 1 1 1 1 -0 -0 -1 -0 -0 0 0 0 0 -0 -0 -0 -0 -0 -0 -0 -0 -0 -0 0 0 0 0 0 0 0 0 1 1 1 0 0 0 0 0 0 -0 -0 -0 -0 -0 -0 -0 -0 -0 -0 -0 -0 -0
-0 -1 -1 -2 -1 -1 -1 -2 -2 -3 -2 -2 -1 -1 -0 0 1 1 2 2 1 1 -0 -0 0 0 1 0 0 0 1 -0 -0 -1 -1 -2 -2 -2 -2 -2 -2 -2 -2 -2 -3 -2 -1 -0 0 0 1 1 1 1 0 -0 -0 -0 -0 -0 -0 0 0 0 0 -0 -0 -0 -0 -0 -0 -0 -0 -0 -0 -0 0 0 0 -0 0 0 1 1 0 0 0 0 0 0 0 -0 -0 -0 -0 -0 -0 -0 -0 -0 -0 -0 -0
-0 -0 -1 -2 -1 -1 -0 -1 -1 -2 -2 -2 -2 -1 -0 -0 0 1 1 2 1 1 1 0 0 0 1 0 0 0 0 0 -0 -0 -1 -1 -2 -2 -2 -2 -2 -2 -2 -3 -3 -2 -1 -0 0 0 1 1 1 1 0 0 -0 -0 -0 -0 -0 0 0 0 0 0 0 -0 -0 0 0 0 -0 -0 -0 -0 -0 -0 -0 -0 -0 -0 0 0 0 0 0 0 0 0 0 0 0 -0 -0 -0 -0 -0 -0 -0 -0 -0 -1
0 -0 -1 -1 -1 -1 -0 -0 -1 -1 -1 -2 -2 -1 -1 -0 0 1 1 1 1 1 1 1 1 1 1 1 0 0 0 0 0 -0 -1 -1 -1 -1 -1 -1 -1 -2 -2 -3 -3 -3 -1 -0 -0 -0 0 1 1 1 0 0 0 -0 -0 -0 -0 0 0 0 0 0 0 0 0 0 0 0 0 -0 -0 -0 -0 -0 -0 -0 -0 -0 0 0 1 0 0 0 0 0 0 0 0 0 -0 -0 -0 -0 -0 -0 -0 -0 -0
1 0 -0 -1 -0 -0 -1 -1 -1 -1 -1 -1 -1 -2 -2 -1 -0 0 1 1 1 1 2 2 1 1 1 0 0 0 0 1 0 0 -0 -1 -1 -1 -1 -1 -1 -2 -2 -3 -3 -3 -2 -1 -0 -0 -0 0 1 1 0 0 0 0 -0 -0 0 0 0 0 0 0 0 0 0 0 -0 0 0 -0 -0 -0 -0 -0 -0 -0 -1 -0 -0 1 1 1 0 0 0 0 0 0 0 0 0 -0 -0 -0 -0 -0 -0 -0 -0
1 0 -0 -0 -1 -1 -2 -2 -2 -1 -0 0 -0 -1 -2 -1 -1 -0 0 1 1 1 1 2 2 1 1 1 1 1 1 1 0 0 -0 -1 -1 -1 -1 -1 -1 -2 -2 -3 -3 -3 -2 -1 -0 0 -0 -0 0 1 0 0 0 0 0 0 0 0 0 0 0 0 1 1 0 0 -0 -0 0 -0 -0 -0 -0 -0 -0 -0 -0 -0 -0 1 1 1 1 0 0 0 1 1 1 0 0 0 -0 -0 -0 -0 -0 -0 -0
-0 -1 -1 -1 -2 -2 -3 -3 -3 -2 -0 1 0 -0 -1 -1 -1 -1 -0 0 0 1 1 1 2 2 1 1 2 2 1 1 0 -0 -1 -1 -1 -1 -1 -1 -2 -2 -2 -3 -3 -4 -4 -2 -1 -0 -0 -1 -0 1 -0 -0 0 0 0 0 0 0 0 0 0 0 1 1 1 1 0 -0 -0 -0 -0 -0 -0 -0 -0 -0 -0 -0 -0 1 1 2 1 1 0 0 1 1 1 0 0 0 -0 -0 -0 -0 -0 -0 -0
-1 -2 -2 -1 -2 -2 -3 -3 -3 -3 -1 -0 0 0 -0 -1 -1 -1 -1 -0 0 0 0 1 1 1 1 1 2 2 2 1 0 -0 -1 -1 -2 -1 -1 -1 -1 -1 -2 -2 -4 -5 -3 -2 -2 -1 -0 -1 -0 0 -1 -0 -0 -0 0 0 0 0 0 0 0 0 0 1 1 1 1 0 0 -0 0 0 0 0 0 0 -0 -0 -0 1 1 2 2 1 1 0 0 0 0 0 0 0 -0 -0 -0 -0 -0 -0 -0
-1 -2 -2 -1 -1 -1 -1 -2 -2 -3 -2 -1 -0 -0 -0 -0 -1 -1 -2 -1 -0 0 0 0 0 0 0 0 1 1 1 1 0 -0 -1 -1 -1 -1 -0 0 0 -0 -1 -2 -4 -4 -1 -1 -2 -2 -1 -1 -1 -0 -0 -1 -1 -1 -0 0 0 0 0 0 0 0 0 0 1 1 1 1 1 0 -0 -0 -0 -0 -0 -0 -0 -0 -0 1 1 2 2 2 1 0 0 0 0 0 0 0 0 0 -0 -0 -0 -0 -0
-1 -1 -1 -1 -0 -0 -0 -0 -1 -2 -2 -1 -1 -1 -1 -0 -0 -1 -2 -1 -1 -0 0 0 0 0 -0 -0 0 0 0 0 -0 -0 -0 -1 -0 -0 0 -1 -2 -3 -3 -3 -4 -3 -1 -1 -2 -2 -1 -0 -0 -0 0 -0 -1 -1 -1 -0 0 0 0 0 0 0 0 0 0 1 1 1 1 1 0 -0 -1 -1 -1 -0 -0 -0 -0 0 1 2 2 2 1 1 0 0 0 0 0 0 0 0 0 0 -0 -0 -0
-1 -1 -1 -0 0 0 -0 -0 -0 -1 -1 -1 -1 -1 -1 -1 -0 -0 -1 -1 -1 -1 -0 0 0 0 0 1 1 1 -0 -0 -0 -0 -0 -0 0 1 0 -2 -3 -3 -4 -3 -3 -3 -2 -2 -2 -2 -1 -0 0 0 0 0 -0 -1 -1 -1 -0 0 0 0 0 0 0 0 0 1 1 1 1 1 1 1 0 -0 -0 0 0 -0 -0 -0 0 1 1 1 1 0 -0 -0 -0 0 -0 -0 -0 -0 -0 0 0 -0 -0
-1 -1 -1 -0 1 1 1 1 -0 -1 -2 -2 -2 -1 -1 -1 -0 -0 -0 -1 -1 -1 -1 -0 -0 -0 0 2 2 2 -0 -0 -0 -0 -0 -0 0 0 0 -0 -1 -2 -2 -1 -1 -1 -2 -2 -2 -2 -1 -1 -0 -0 0 1 1 -0 -1 -1 -0 -0 0 0 0 0 0 0 0 1 1 1 2 2 1 1 1 1 1 1 1 0 -0 -0 0 0 1 1 0 -0 -0 -0 -0 -0 -0 -0 -0 -0 -0 -0 0 -0 -0
-1 -1 -2 -0 1 2 2 1 -1 -2 -3 -2 -2 -1 -1 -1 -1 -0 -0 -0 -1 -1 -1 -1 -1 -0 0 1 2 1 -0 -0 -0 -0 0 0 0 -0 0 0 -0 -1 -0 -0 0 -0 -1 -1 -1 -2 -2 -2 -1 0 -0 1 1 1 -0 -0 -0 -0 -0 -0 0 0 0 0 0 1 1 1 2 2 2 2 2 1 1 1 1 1 0 0 0 1 1 1 1 0 -0 -0 0 0 0 0 0 0 0 0 0 -0 -0
-1 -2 -2 -1 -0 0 0 -1 -1 -2 -2 -2 -2 -1 -1 -1 -1 -1 -0 -0 -0 -1 -1 -2 -1 0 1 0 1 1 -0 -1 -0 0 0 -0 -0 -0 0 0 0 -0 -0 -0 -0 -0 -0 -0 -1 -2 -4 -2 0 2 1 1 1 1 1 0 -0 -0 -0 -0 -0 -0 -0 0 0 1 1 1 1 1 1 2 2 2 1 2 1 1 1 1 1 1 1 1 1 1 1 1 1 1 1 1 1 1 1 1 0 -0 -0
-1 -2 -1 -1 -1 -1 -1 -2 -1 -1 -1 -1 -1 -1 -1 -1 -1 -1 -1 -0 -0 -0 -1 -2 -1 0 1 0 0 0 -0 -1 -0 -0 -1 -0 -0 0 -0 0 0 -0 -1 -1 -1 -1 -1 -1 -2 -3 -2 -0 1 2 2 1 1 2 1 0 0 0 0 0 0 -0 -0 -0 0 1 1 1 1 1 1 1 1 1 1 1 1 1 0 0 0 1 1 1 1 1 1 1 1 1 1 1 1 1 1 1 0 -0 -1
-2 -2 -0 -1 -1 -1 -1 -1 -1 -0 -0 -1 -1 -1 -1 0 0 -0 -1 -0 -0 -0 -1 -1 -1 -0 0 -0 -0 0 -1 -1 -2 -2 -2 -0 0 -0 -1 -1 -1 -1 -1 -1 -1 -0 -0 -3 -2 0 -0 -2 -2 -2 -2 -1 0 1 2 2 1 1 1 1 1 0 -0 -0 -0 0 1 1 1 1 0 0 1 1 1 1 1 0 0 0 0 1 1 1 1 1 1 1 1 1 1 1 1 1 1 1 0 -0 -0
-2 -1 -0 -0 -0 -1 -1 -0 -0 -0 -0 -0 -1 -1 -0 1 1 0 -0 -0 0 0 -0 -0 -0 -1 -1 -0 0 0 -1 -2 -4 -4 -0 1 1 0 -2 -3 -2 -1 -1 -1 -0 0 -1 -3 -2 -0 -3 -3 -3 -2 -1 -1 -1 -0 1 0 1 1 1 1 1 1 -0 -0 -0 0 1 1 1 1 0 0 0 1 1 1 0 0 -0 -0 0 0 0 1 1 1 1 1 1 1 1 1 1 1 1 1 0 0 0
-1 -1 0 0 -0 -0 -0 0 0 -0 -0 -0 -0 -0 0 1 2 2 1 0 -0 -0 0 1 1 -0 0 2 2 2 1 -2 -2 -0 4 5 4 2 -1 -2 -2 -1 -1 -1 -1 -2 -3 -2 -2 -2 -2 -2 -2 -2 -1 -1 -0 -0 -0 0 1 1 1 1 1 1 0 -0 -0 0 0 1 1 1 1 1 1 1 1 1 0 0 -0 -0 0 0 0 0 1 1 1 1 1 1 1 1 1 1 1 1 0 0 0
-0 -0 -0 0 -0 -0 0 1 0 -0 -0 0 0 -0 -0 1 2 2 3 1 -0 -0 1 2 1 1 2 4 4 3 2 -1 -1 2 6 5 3 1 1 0 -0 -1 -0 -1 -2 -2 -1 -1 -1 -2 -2 -1 -1 -1 -1 -1 -0 -0 -1 -0 0 1 1 1 1 1 0 0 -0 -0 0 1 1 1 1 1 1 1 1 1 0 0 0 -0 -0 0 0 0 1 1 1 1 1 1 1 1 1 1 1 1 0 0 0
-0 -0 -1 -0 0 0 1 1 0 -0 0 1 0 -0 -0 -0 1 3 3 1 1 1 2 1 0 1 2 4 4 3 2 0 -1 -1 1 1 0 0 1 0 -0 -0 -0 -1 -0 0 1 0 -1 -1 -1 -1 -1 -1 -1 -0 -0 0 -0 -0 -0 -0 0 0 1 1 1 0 0 -0 -0 0 1 1 1 1 0 0 1 1 0 0 0 -0 -0 0 0 0 1 0 0 1 1 1 1 1 1 1 1 1 1 1 0
-0 -0 -0 1 2 2 2 1 0 -0 0 0 0 -0 -0 -0 1 2 3 2 2 3 3 1 0 -0 0 2 2 2 1 1 -0 -1 -1 -1 -1 0 1 -0 -1 -1 -1 -1 -0 0 0 -0 -1 -1 -1 -1 -1 -0 -0 -0 0 0 1 0 -0 -0 -0 0 1 1 1 1 0 -0 -0 0 1 1 1 1 0 0 0 0 0 0 0 -0 -0 0 0 0 0 0 0 0 0 0 1 1 1 1 1 1 1 1 0
2 2 3 4 4 3 2 1 1 0 -0 -0 -0 -0 -0 -0 0 1 2 2 3 4 6 3 -0 -3 -3 -1 -0 1 1 1 1 0 -1 -1 -1 -0 0 -1 -1 -1 -1 -1 -0 0 0 -0 -0 -0 -1 -0 -0 -0 -0 -0 -0 -0 0 0 0 0 0 0 1 1 2 1 1 -0 -0 -0 0 1 1 1 0 0 0 0 0 0 0 -0 -0 0 0 0 0 0 0 0 0 0 0 0 1 1 1 1 1 0 0
6 4 6 6 4 3 3 3 2 1 -1 -1 -0 0 0 -0 -0 -0 1 1 1 2 4 2 -1 -3 -4 -4 -2 -1 1 1 0 -0 -2 -1 -1 -0 -1 -1 -1 -0 -1 -0 0 0 -0 -0 -0 -0 -0 -0 -0 -0 -0 -0 -0 -0 -0 0 1 1 0 1 1 2 2 1 1 -0 -1 -0 0 1 1 1 0 0 0 0 0 0 -0 -0 -0 -0 0 0 0 0 0 0 0 0 0 0 0 1 1 1 1 0 0
9 8 9 6 3 2 4 5 4 1 -0 -1 -0 0 0 -0 -1 -1 0 1 1 1 1 1 0 -1 -2 -3 -3 -2 0 0 -0 -1 -2 -1 -0 -1 -1 -1 -0 -0 -1 -0 0 1 -0 -0 -0 0 -0 0 0 0 -0 -0 -0 -0 -1 0 1 1 1 1 1 1 2 1 0 -0 -1 -0 0 1 1 1 0 0 0 0 -0 -0 -0 -0 -0 -0 0 0 0 0 0 0 0 0 0 0 0 0 0 1 1 1 1
6 13 24 15 3 -4 2 4 4 3 0 -0 -0 -0 0 -0 -1 -1 0 1 1 2 2 1 1 1 0 -1 -1 -1 0 0 -1 -1 -1 -0 -0 -1 -2 -1 -0 0 -0 0 0 -0 -1 -0 0 0 0 0 0 0 1 1 1 0 0 1 1 2 2 1 1 1 1 1 0 -0 -0 -0 0 1 1 1 0 0 0 -0 -0 -0 -0 -0 -0 -0 -0 0 0 0 0 0 0 0 0 -0 -0 0 0 1 1 1 1
4 17 41 31 13 -1 1 4 4 3 1 -0 -0 -0 1 0 -1 -1 -0 1 2 2 2 2 1 1 0 -0 -0 0 0 -0 -1 -1 -0 0 -0 -1 -0 -0 -0 0 1 1 -0 -1 -1 1 1 1 0 0 1 2 2 2 1 1 2 2 2 2 2 2 2 2 2 1 0 -0 -0 -0 0 1 1 0 0 0 0 -0 -0 -0 -0 -0 -0 -0 -0 0 0 0 0 0 0 0 0 0 0 0 0 1 1 1 1
-0 11 35 47 32 10 2 5 5 3 2 0 -0 -0 1 -0 -1 -2 -1 1 2 2 2 2 2 1 -0 -0 0 0 -1 -0 -0 -1 -0 -0 -0 -0 1 0 -0 -0 1 1 -0 -1 -1 2 2 2 1 1 2 2 2 1 1 2 2 3 3 3 3 2 2 2 2 1 1 0 0 0 0 0 0 0 0 0 0 -0 -0 -0 -0 -0 -0 -0 -0 0 0 0 0 0 0 0 0 0 0 1 1 1 1 1 1
-3 0 12 38 31 11 0 4 4 2 2 -0 -1 -0 0 -1 -2 -2 -0 0 1 2 3 3 2 1 0 1 1 0 -1 0 -0 -1 -0 -0 -0 0 1 -0 -2 -2 -1 -0 -1 -1 -0 2 3 3 3 3 3 2 1 1 1 1 2 2 2 2 2 2 2 2 2 2 1 1 0 0 0 0 0 0 0 0 0 -0 -0 -0 -0 -0 -0 -0 -0 0 0 0 0 0 0 0 0 0 0 1 1 1 1 1 1
-2 -2 -1 15 13 4 0 3 3 2 2 -1 -1 -1 -1 -3 -4 -3 -0 0 0 1 3 3 3 2 2 2 1 1 0 0 -0 -1 -0 -0 -0 0 -0 -2 -3 -2 -1 -0 -0 0 1 3 4 3 3 3 2 2 1 0 0 1 1 1 1 1 1 1 2 2 2 2 2 1 1 1 0 0 0 0 0 0 0 -0 -0 -0 -0 -0 -0 -0 -0 0 0 1 1 0 1 1 1 1 1 1 1 1 1 1 1
-1 -0 1 12 10 5 3 5 4 2 1 -2 -3 -2 -2 -4 -4 -2 -0 -0 -0 -0 1 3 3 3 2 2 1 1 1 -0 -0 -0 -0 -0 -0 -0 -1 -3 -2 -1 0 0 0 1 2 3 4 3 2 2 2 1 1 0 -0 -0 0 1 1 0 0 1 2 2 2 2 2 2 2 1 0 0 -0 0 0 0 0 -0 -0 -0 -0 -1 -1 -0 -0 0 1 1 1 1 1 1 1 1 1 1 1 1 1 1 1
-0 1 3 13 14 9 4 6 4 2 3 1 0 -0 -1 -3 -3 -2 -1 -1 -1 -2 -1 2 3 3 2 1 1 0 1 0 0 0 -0 -1 -1 -1 -1 -2 -1 -0 1 0 0 0 1 3 3 3 2 1 1 1 1 1 0 -0 -0 0 -0 0 0 1 1 2 2 2 2 2 2 1 1 0 -0 -0 -0 0 0 -0 -0 -0 -0 -1 -1 -0 -0 0 1 1 1 1 1 1 1 1 1 1 1 1 1 1 1
-0 1 3 9 10 8 0 4 4 4 5 8 7 3 -0 -0 -2 -3 -2 -1 -2 -2 -1 0 2 2 2 1 1 1 1 1 1 1 -0 -1 -2 -1 -1 -1 -1 -1 -1 -1 -1 -0 0 2 3 3 1 -0 -0 0 0 0 0 -0 -0 -1 -0 -0 0 0 1 1 2 2 2 2 2 2 1 0 -0 -0 -0 0 0 -0 -0 -0 -1 -1 -1 -0 -0 0 0 0 0 1 1 1 1 1 1 1 1 1 1 1 1
0 1 2 4 4 2 -3 3 10 14 8 10 10 7 2 2 -1 -3 -2 -1 -2 -2 -1 0 1 1 1 1 1 1 2 2 1 1 -0 -1 -1 -1 -0 -0 -0 -1 -1 -1 -1 -0 1 2 2 2 -0 -1 -0 1 1 1 0 -0 -1 -1 -1 -0 -0 -0 -0 1 2 2 2 2 2 2 2 1 0 -0 -0 -0 -0 -0 -0 -1 -1 -1 -1 -0 -0 0 0 0 0 1 1 1 1 1 1 1 1 1 1 1 1
0 1 0 1 1 0 -2 7 27 39 23 12 9 6 0 -2 -3 -3 -0 -0 -1 -1 -1 1 2 2 1 1 1 1 2 1 1 0 -0 -1 -1 -0 -0 -0 -0 -0 -1 -0 0 1 2 1 0 -0 -1 -1 -0 2 3 2 1 -0 -2 -1 -1 -0 -1 -0 -0 0 1 1 1 2 2 2 2 1 0 0 -0 -0 -0 -0 -1 -1 -1 -1 -1 -0 -0 -0 -0 0 0 1 1 1 1 1 1 1 1 1 1 1 1
0 0 -0 1 2 1 -1 6 30 49 38 22 8 -1 -3 -4 -3 -0 2 2 2 1 1 2 3 2 1 1 1 0 1 1 0 0 0 -0 -1 -1 -1 -1 -1 -1 -0 0 1 1 2 1 -0 -1 -1 -1 -0 1 3 3 2 0 -1 -0 -0 -1 -1 -0 0 0 1 1 1 1 2 2 2 2 1 0 0 -0 -0 -0 -1 -1 -1 -1 -1 -0 -0 -0 0 0 1 1 1 1 1 1 1 1 1 1 1 1 1
0 0 0 1 2 1 -1 -1 17 37 48 31 16 4 -3 -1 0 2 6 6 4 3 3 4 3 2 1 1 0 -0 1 0 1 1 -0 -2 -3 -3 -2 -2 -1 -0 1 1 1 1 0 -0 -1 -2 -1 -1 -0 1 2 2 1 0 0 1 0 -0 -0 0 1 1 1 0 1 1 1 2 2 2 1 1 0 0 0 -0 -0 -0 -1 -1 -0 -0 -0 0 0 1 2 2 1 1 1 1 1 1 1 1 1 1 0
2 2 0 1 1 1 -1 -4 5 24 53 37 24 13 -0 2 4 5 7 7 5 3 3 2 1 0 1 1 -0 -0 1 1 1 2 5 2 -2 -3 -2 -1 -0 0 1 1 0 -0 -1 -1 -1 -2 -1 -0 0 2 2 2 1 0 0 1 1 1 1 1 1 1 1 1 1 1 2 2 2 2 1 1 1 0 0 0 0 -0 -0 -0 -0 0 0 1 1 2 2 2 1 1 1 1 1 1 1 1 1 1 0
7 6 -0 -0 0 -0 -1 -1 1 12 36 39 33 21 7 3 6 10 10 9 6 3 1 -0 -2 -2 0 1 0 0 2 2 1 -0 0 -2 -2 -1 0 0 -0 -1 -3 -2 -1 -1 -1 -2 -2 -1 -0 0 1 2 2 2 1 1 0 0 1 2 2 2 1 0 0 1 1 2 2 2 2 2 1 1 1 1 1 1 1 0 0 0 0 0 0 1 2 2 2 1 1 1 1 1 1 0 1 1 1 1 0
9 8 1 -0 -1 -1 -1 2 1 4 17 34 29 16 8 10 12 13 11 8 6 3 0 -1 -2 -1 0 1 1 1 2 2 0 -2 -4 -3 -0 2 2 -0 -3 -6 -6 -2 -2 -3 -2 -3 -2 -1 1 2 2 3 2 2 1 0 1 1 1 1 2 2 1 0 0 0 1 2 3 3 2 2 1 1 1 1 1 1 1 1 0 0 0 1 1 1 2 2 1 0 0 1 1 1 1 1 1 1 1 1 0
8 8 4 0 -1 -1 0 2 1 1 7 23 28 25 21 24 20 13 1 0 0 1 2 1 -0 -0 2 1 1 1 1 1 0 -0 -0 1 1 1 -2 -5 -7 -6 -1 0 -2 -5 -5 -4 -2 1 3 4 4 3 3 2 1 0 1 0 1 1 2 1 0 -0 0 1 2 3 3 3 2 1 1 1 1 1 1 1 1 1 0 1 1 1 2 2 2 1 -0 -0 0 1 1 1 1 1 1 1 1 1 1
6 7 4 3 3 4 2 0 1 1 0 11 24 34 36 21 14 8 -2 -5 -6 -4 4 2 1 1 2 0 -1 -1 0 2 2 2 2 0 -0 -2 -5 -7 -4 0 2 2 -3 -8 -10 -2 2 3 4 5 4 3 3 2 1 0 0 -0 0 1 1 0 0 0 0 1 2 3 3 3 2 1 1 1 1 1 1 1 1 1 1 1 1 2 2 2 1 -0 -1 -0 1 2 1 1 1 1 1 1 1 1 1
4 6 5 8 10 8 1 0 1 2 -0 5 19 33 36 25 11 0 -3 -1 -4 -4 2 2 1 0 0 -1 -2 -1 2 3 4 4 2 -1 -2 -2 -2 -2 -0 0 -2 -4 -7 -9 -5 3 5 4 3 3 3 2 2 1 1 0 -0 -0 0 0 0 0 0 -0 0 1 2 2 3 3 2 1 1 1 1 1 1 1 1 1 1 1 2 2 2 2 0 -1 -1 0 2 2 2 1 1 1 1 1 1 1 1
4 4 3 5 8 8 5 3 2 1 0 4 14 26 33 34 19 2 -5 4 6 5 3 2 1 -0 -0 0 0 1 3 4 4 3 3 -0 -1 -0 1 -0 -2 -4 -4 -7 -7 -3 4 4 2 1 -1 2 2 2 1 1 1 -0 -0 -0 0 0 0 0 0 0 1 1 2 2 3 2 2 1 1 1 1 1 0 1 1 1 1 2 2 2 2 1 -0 -1 -0 1 2 2 2 1 1 1 1 1 1 1 0
4 4 2 3 4 5 8 7 4 0 -0 4 12 22 29 35 27 13 -0 8 14 15 7 4 3 2 2 3 3 3 3 3 3 3 3 2 1 0 -0 -3 -4 -4 -3 -6 -4 -1 0 -1 -1 -2 -3 2 3 1 1 2 1 -0 -0 -0 0 0 0 0 1 1 2 2 2 2 3 3 2 2 1 1 1 0 0 1 1 2 2 2 3 2 1 -0 -1 -1 0 1 2 2 1 1 1 1 1 0 0 0 0
3 3 3 4 4 4 4 9 9 5 -1 2 11 22 30 32 28 19 5 8 10 10 6 8 7 5 4 4 4 3 2 2 2 3 3 2 1 -1 -2 -3 -3 -2 -1 -3 -3 -3 -5 -3 -3 -3 0 3 2 0 2 1 0 -0 0 0 0 0 0 1 2 2 3 3 3 3 3 3 2 2 1 1 0 0 0 1 2 2 3 3 2 1 0 -0 -1 -0 0 1 1 1 1 1 1 0 0 0 0 0 0
2 3 5 8 5 2 1 5 12 16 11 8 13 21 26 25 20 12 2 7 8 8 11 11 7 4 4 4 3 1 -0 0 2 4 4 2 -1 -3 -2 -2 -2 -2 -2 -3 -3 -3 -4 -4 -3 -1 4 2 0 -0 1 -0 0 0 1 1 1 1 1 2 3 3 3 3 3 2 2 2 2 2 2 1 0 -0 0 1 2 3 3 3 2 0 -0 -0 -0 0 1 1 1 1 1 1 0 0 0 -0 -0 0 0
1 2 4 6 4 2 0 2 10 19 25 24 21 17 13 11 7 3 4 13 17 18 20 12 7 4 4 3 1 0 -0 1 3 4 4 -0 -3 -4 0 -0 -2 -3 -3 -3 -3 -3 -2 -3 -2 -0 2 0 1 1 1 -0 -0 1 1 0 0 1 1 2 3 4 3 3 2 2 2 2 2 2 2 1 0 -0 0 2 3 3 3 2 0 -0 -0 -0 0 1 1 1 1 1 1 1 0 0 -0 -0 0 0 0
2 2 1 4 5 4 0 1 5 12 20 23 19 12 6 3 0 2 11 21 26 27 23 15 9 5 3 2 1 1 1 3 4 3 1 -1 -3 -2 2 1 -1 -3 -3 -3 -3 -2 -2 -3 -2 -1 -0 -0 1 2 1 0 0 0 0 0 0 1 1 3 4 4 3 3 2 2 2 2 2 2 1 1 0 0 1 2 3 3 2 1 -0 -0 -0 1 1 1 1 1 1 1 1 1 0 0 -0 0 0 0 0
Height
3170 3170 3170 3169 3169 3169 3168 3168 3168 3168 3167 3167 3167 3166 3166 3166 3165 3165 3165 3165 3165 3165 3164 3165 3164 3164 3164 3163 3163 3162 3162 3162 3162 3162 3161 3161 3161 3161 3161 3161 3161 3161 3161 3161 3162 3163 3163 3163 3163 3163 3163 3163 3163 3163 3163 3163 3163 3163 3162 3162 3162 3162 3162 3161 3161 3161 3161 3161 3160 3160 3160 3160 3160 3160 3160 3160 3160 3160 3160 3160 3160 3160 3159 3159 3159 3159 3160 3160 3160 3160 3160 3160 3160 3160 3160 3160 3160 3160 3160 3160 3160 3161 3161
3169 3169 3169 3169 3168 3168 3168 3168 3167 3167 3166 3166 3166 3165 3165 3165 3165 3165 3165 3165 3165 3164 3164 3164 3164 3164 3164 3163 3162 3162 3162 3161 3161 3161 3161 3160 3160 3160 3160 3161 3161 3160 3160 3161 3161 3162 3162 3162 3163 3163 3163 3163 3162 3162 3162 3162 3162 3162 3162 3161 3161 3161 3161 3161 3161 3161 3160 3160 3160 3160 3160 3160 3160 3160 3160 3160 3160 3160 3160 3159 3159 3159 3159 3159 3159 3159 3159 3159 3159 3160 3160 3160 3160 3160 3160 3160 3160 3160 3160 3160 3160 3160 3160
3169 3168 3168 3168 3168 3167 3167 3167 3166 3166 3166 3165 3165 3165 3165 3164 3164 3164 3164 3164 3164 3164 3163 3163 3163 3163 3163 3162 3162 3162 3161 3161 3161 3161 3160 3160 3160 3160 3160 3160 3160 3160 3160 3160 3161 3161 3162 3162 3162 3162 3162 3162 3162 3162 3162 3162 3162 3161 3161 3161 3160 3160 3160 3160 3160 3160 3160 3160 3160 3160 3160 3160 3160 3160 3160 3160 3160 3159 3159 3159 3159 3159 3159 3159 3159 3159 3159 3159 3159 3159 3159 3159 3159 3160 3160 3160 3160 3160 3160 3160 3160 3160 3160
3168 3168 3167 3167 3167 3166 3166 3166 3166 3165 3165 3165 3164 3164 3164 3163 3163 3163 3163 3164 3163 3163 3162 3162 3162 3162 3162 3162 3161 3161 3161 3161 3161 3160 3160 3160 3160 3160 3160 3160 3160 3160 3160 3160 3160 3160 3161 3161 3161 3161 3161 3161 3161 3161 3161 3161 3161 3161 3160 3160 3160 3160 3160 3160 3160 3160 3160 3160 3160 3160 3159 3159 3159 3159 3159 3159 3159 3159 3159 3159 3159 3159 3158 3158 3158 3158 3158 3158 3158 3159 3159 3159 3159 3159 3159 3159 3159 3159 3159 3159 3159 3160 3160
3167 3167 3167 3166 3166 3166 3165 3165 3165 3165 3164 3164 3164 3163 3163 3163 3162 3162 3162 3162 3162 3162 3162 3162 3162 3161 3161 3161 3161 3161 3160 3160 3160 3160 3160 3159 3159 3159 3159 3159 3159 3159 3159 3159 3159 3160 3160 3160 3161 3161 3161 3161 3160 3160 3160 3160 3160 3160 3160 3160 3159 3159 3159 3159 3159 3159 3160 3160 3160 3160 3159 3159 3159 3159 3159 3159 3159 3159 3159 3158 3158 3158 3158 3158 3158 3158 3158 3158 3158 3158 3158 3159 3159 3159 3159 3159 3159 3159 3159 3159 3159 3159 3159
3166 3166 3166 3165 3165 3165 3165 3164 3164 3164 3163 3163 3163 3162 3162 3162 3161 3161 3160 3160 3161 3161 3161 3161 3161 3161 3161 3161 3160 3160 3160 3159 3159 3159 3159 3159 3159 3158 3158 3159 3159 3159 3159 3159 3159 3159 3160 3160 3160 3160 3160 3160 3160 3160 3160 3160 3160 3160 3159 3159 3159 3159 3159 3159 3159 3159 3159 3159 3159 3159 3159 3159 3159 3159 3159 3158 3158 3158 3158 3158 3158 3158 3158 3157 3157 3157 3157 3158 3158 3158 3158 3158 3158 3158 3158 3158 3159 3159 3159 3159 3159 3159 3159
3165 3165 3165 3164 3164 3164 3163 3163 3163 3163 3162 3162 3162 3162 3161 3161 3161 3160 3160 3159 3159 3160 3160 3161 3160 3160 3160 3160 3159 3159 3159 3159 3159 3158 3158 3158 3158 3158 3158 3158 3158 3159 3159 3158 3158 3158 3159 3159 3160 3160 3160 3160 3160 3159 3159 3159 3159 3159 3159 3159 3159 3158 3158 3158 3159 3159 3159 3159 3159 3159 3159 3159 3159 3158 3158 3158 3158 3158 3158 3157 3157 3157 3157 3157 3157 3157 3157 3157 3157 3157 3158 3158 3158 3158 3158 3158 3158 3158 3158 3158 3158 3158 3159
3164 3164 3164 3163 3163 3162 3162 3162 3162 3161 3161 3161 3161 3161 3160 3160 3160 3160 3159 3159 3158 3159 3160 3160 3159 3159 3158 3158 3158 3158 3158 3158 3158 3158 3158 3157 3158 3158 3158 3158 3158 3158 3158 3158 3158 3158 3159 3159 3159 3159 3160 3160 3159 3159 3159 3159 3159 3159 3159 3158 3158 3158 3158 3158 3158 3158 3158 3159 3159 3159 3159 3158 3158 3158 3158 3158 3157 3157 3157 3157 3157 3157 3157 3157 3157 3156 3157 3157 3157 3157 3157 3157 3157 3157 3157 3158 3158 3158 3158 3158 3158 3158 3158
3163 3163 3162 3162 3162 3161 3161 3161 3160 3160 3160 3160 3160 3160 3160 3159 3159 3159 3159 3158 3157 3157 3159 3159 3159 3158 3157 3157 3157 3157 3157 3157 3157 3157 3157 3157 3157 3157 3157 3157 3157 3158 3158 3157 3157 3158 3158 3159 3159 3159 3159 3159 3159 3159 3158 3158 3158 3158 3158 3158 3158 3158 3158 3158 3158 3158 3158 3158 3158 3158 3158 3158 3158 3158 3157 3157 3157 3157 3157 3157 3156 3156 3156 3156 3156 3156 3156 3156 3156 3156 3156 3156 3157 3157 3157 3157 3157 3157 3157 3157 3157 3157 3157
3162 3162 3161 3161 3160 3160 3160 3160 3160 3159 3159 3159 3159 3159 3159 3158 3158 3158 3158 3157 3157 3156 3157 3158 3158 3157 3157 3157 3157 3157 3157 3157 3156 3156 3156 3156 3156 3156 3156 3156 3156 3157 3157 3157 3157 3157 3158 3158 3158 3159 3159 3159 3159 3158 3158 3158 3158 3158 3158 3158 3158 3158 3158 3158 3158 3158 3158 3158 3158 3158 3158 3158 3157 3157 3157 3157 3157 3156 3156 3156 3156 3156 3156 3156 3156 3155 3155 3155 3155 3156 3156 3156 3156 3156 3156 3156 3156 3156 3157 3157 3157 3157 3157
3161 3161 3160 3160 3160 3159 3159 3158 3158 3158 3158 3157 3157 3157 3157 3157 3157 3157 3156 3156 3156 3156 3156 3156 3156 3156 3156 3156 3156 3156 3156 3156 3156 3156 3156 3155 3155 3155 3155 3155 3156 3156 3156 3156 3156 3157 3157 3158 3158 3158 3158 3158 3158 3158 3157 3157 3157 3158 3158 3158 3158 3158 3158 3158 3157 3157 3157 3157 3157 3157 3157 3157 3157 3157 3157 3157 3156 3156 3156 3156 3156 3155 3155 3155 3155 3155 3155 3155 3155 3155 3155 3155 3155 3155 3155 3156 3156 3156 3156 3156 3156 3156 3156
3160 3160 3160 3159 3158 3158 3157 3157 3157 3157 3156 3156 3156 3156 3156 3156 3156 3156 3155 3155 3155 3155 3155 3155 3155 3155 3155 3155 3155 3155 3155 3155 3155 3155 3155 3155 3155 3155 3155 3155 3155 3155 3155 3155 3155 3156 3157 3157 3157 3158 3158 3158 3158 3157 3157 3157 3157 3157 3157 3158 3158 3158 3157 3157 3157 3157 3157 3157 3157 3157 3157 3157 3157 3157 3156 3156 3156 3156 3156 3155 3155 3155 3155 3155 3155 3155 3155 3155 3155 3155 3155 3155 3155 3155 3155 3155 3155 3155 3155 3155 3155 3155 3155
3159 3159 3158 3158 3157 3157 3156 3156 3155 3155 3155 3155 3155 3155 3155 3155 3155 3155 3155 3154 3154 3154 3154 3154 3154 3154 3154 3154 3154 3154 3154 3154 3154 3154 3154 3154 3154 3154 3154 3154 3154 3154 3154 3154 3155 3155 3156 3156 3157 3157 3157 3157 3157 3157 3156 3156 3156 3157 3157 3157 3157 3157 3157 3157 3157 3157 3157 3156 3156 3156 3156 3156 3156 3156 3156 3156 3156 3155 3155 3155 3155 3155 3155 3155 3155 3155 3154 3154 3154 3154 3154 3154 3154 3154 3154 3155 3155 3155 3155 3155 3155 3155 3155
3157 3157 3157 3157 3156 3156 3155 3155 3154 3154 3154 3154 3154 3154 3154 3154 3154 3154 3154 3153 3153 3153 3153 3153 3153 3153 3153 3153 3153 3153 3153 3153 3153 3153 3153 3153 3153 3153 3153 3153 3153 3153 3153 3153 3154 3154 3155 3155 3156 3156 3157 3157 3156 3156 3156 3156 3156 3156 3156 3157 3157 3157 3157 3157 3156 3156 3156 3156 3156 3156 3156 3156 3156 3156 3156 3155 3155 3155 3155 3155 3155 3155 3155 3154 3154 3154 3154 3154 3154 3154 3154 3154 3154 3154 3154 3154 3154 3154 3154 3154 3154 3154 3154
3156 3156 3156 3155 3155 3155 3155 3154 3153 3153 3152 3152 3152 3152 3152 3152 3152 3152 3152 3152 3152 3152 3152 3152 3152 3152 3152 3152 3152 3152 3152 3152 3152 3152 3152 3152 3152 3152 3152 3152 3152 3152 3153 3153 3153 3153 3154 3155 3155 3155 3156 3156 3156 3156 3155 3155 3155 3155 3156 3156 3156 3156 3156 3156 3156 3156 3156 3156 3156 3156 3155 3155 3155 3155 3155 3155 3155 3155 3155 3155 3155 3154 3154 3154 3154 3154 3154 3154 3153 3153 3153 3153 3153 3153 3153 3153 3153 3153 3153 3153 3153 3153 3153
3155 3155 3154 3154 3154 3154 3154 3153 3152 3152 3151 3151 3151 3151 3151 3151 3151 3151 3151 3151 3151 3151 3151 3150 3151 3151 3151 3151 3151 3151 3151 3151 3151 3151 3151 3151 3151 3151 3151 3151 3151 3151 3152 3152 3152 3152 3153 3154 3154 3154 3155 3155 3155 3155 3155 3155 3155 3155 3155 3155 3155 3155 3156 3156 3156 3156 3155 3155 3155 3155 3155 3155 3155 3155 3155 3155 3155 3155 3154 3154 3154 3154 3154 3154 3153 3153 3153 3153 3153 3153 3153 3153 3153 3153 3153 3153 3153 3153 3153 3153 3152 3152 3152
3153 3153 3153 3153 3153 3153 3153 3152 3151 3151 3150 3150 3150 3150 3150 3150 3150 3150 3150 3150 3150 3150 3150 3149 3150 3150 3150 3150 3150 3150 3150 3150 3150 3150 3150 3150 3150 3150 3150 3150 3150 3151 3151 3151 3151 3151 3152 3153 3153 3153 3154 3154 3154 3154 3154 3154 3154 3154 3155 3155 3155 3155 3155 3155 3155 3155 3155 3155 3155 3155 3155 3155 3155 3155 3155 3154 3154 3154 3154 3154 3154 3154 3153 3153 3153 3153 3153 3153 3153 3152 3152 3152 3152 3152 3152 3152 3152 3152 3152 3152 3152 3152 3152
3152 3152 3151 3151 3151 3151 3151 3151 3151 3150 3150 3149 3149 3148 3148 3148 3148 3148 3148 3148 3148 3148 3148 3148 3148 3148 3148 3149 3149 3149 3149 3149 3149 3149 3149 3149 3149 3149 3150 3150 3150 3150 3150 3150 3150 3150 3151 3151 3152 3152 3152 3153 3153 3153 3153 3153 3153 3154 3154 3154 3154 3154 3154 3154 3154 3155 3155 3155 3155 3154 3154 3154 3154 3154 3154 3154 3154 3154 3154 3154 3153 3153 3153 3153 3153 3152 3152 3152 3152 3152 3152 3152 3152 3151 3151 3151 3151 3151 3151 3151 3151 3151 3151
3151 3150 3150 3150 3150 3150 3150 3150 3150 3149 3149 3148 3148 3147 3147 3147 3147 3147 3147 3147 3147 3147 3147 3147 3147 3147 3147 3147 3147 3148 3148 3148 3148 3148 3148 3148 3148 3148 3149 3149 3149 3149 3149 3149 3149 3149 3150 3150 3151 3151 3151 3152 3152 3152 3152 3152 3153 3153 3153 3153 3153 3153 3153 3154 3154 3154 3154 3154 3154 3154 3154 3154 3154 3154 3153 3153 3153 3153 3153 3153 3153 3153 3153 3152 3152 3152 3152 3152 3151 3151 3151 3151 3151 3151 3151 3151 3151 3151 3150 3150 3150 3150 3150
3149 3149 3149 3148 3148 3148 3148 3148 3148 3148 3148 3147 3147 3146 3146 3145 3145 3145 3145 3145 3145 3145 3145 3145 3146 3146 3146 3146 3146 3146 3146 3146 3147 3147 3147 3147 3147 3147 3147 3148 3148 3148 3148 3148 3148 3148 3148 3149 3150 3150 3150 3150 3151 3151 3151 3151 3151 3152 3152 3152 3152 3152 3153 3153 3153 3153 3153 3153 3153 3153 3153 3153 3153 3153 3153 3153 3153 3153 3153 3153 3153 3152 3152 3152 3151 3151 3151 3151 3151 3151 3151 3151 3150 3150 3150 3150 3150 3150 3150 3150 3150 3150 3150
3147 3147 3147 3147 3146 3146 3146 3146 3146 3147 3146 3146 3146 3145 3145 3144 3144 3144 3144 3144 3144 3144 3144 3144 3144 3145 3145 3145 3145 3145 3145 3145 3145 3145 3145 3146 3146 3146 3146 3147 3147 3147 3147 3147 3147 3147 3147 3147 3148 3149 3150 3149 3150 3150 3150 3150 3150 3150 3151 3151 3151 3152 3152 3152 3152 3152 3152 3153 3153 3153 3153 3153 3152 3152 3152 3152 3152 3152 3152 3152 3152 3152 3152 3151 3151 3151 3150 3150 3150 3150 3150 3150 3150 3150 3150 3150 3150 3149 3149 3149 3149 3149 3149
3145 3145 3145 3145 3145 3145 3145 3145 3145 3145 3145 3145 3145 3144 3144 3143 3143 3142 3142 3142 3142 3143 3143 3143 3143 3143 3143 3143 3144 3144 3144 3144 3144 3145 3145 3145 3145 3145 3146 3146 3146 3146 3146 3146 3145 3145 3146 3146 3147 3148 3148 3148 3149 3149 3149 3149 3149 3150 3150 3150 3150 3151 3151 3151 3151 3151 3152 3152 3152 3152 3152 3152 3152 3152 3151 3151 3151 3151 3151 3151 3151 3151 3151 3151 3150 3150 3150 3150 3150 3150 3150 3149 3149 3149 3149 3149 3149 3149 3148 3148 3148 3148 3148
3143 3143 3143 3143 3143 3143 3143 3143 3143 3143 3143 3143 3143 3142 3142 3142 3142 3141 3141 3141 3141 3141 3141 3141 3141 3141 3142 3142 3142 3143 3142 3143 3143 3143 3144 3144 3144 3144 3145 3144 3145 3145 3145 3145 3144 3144 3145 3145 3146 3146 3147 3148 3148 3148 3149 3149 3149 3149 3149 3149 3149 3150 3150 3150 3150 3150 3151 3151 3151 3151 3151 3151 3151 3151 3151 3151 3151 3150 3150 3150 3150 3150 3150 3150 3150 3150 3149 3149 3149 3149 3149 3149 3149 3148 3148 3148 3148 3148 3148 3147 3147 3147 3147
3141 3141 3141 3141 3141 3141 3141 3141 3141 3141 3141 3141 3141 3140 3140 3140 3140 3140 3140 3140 3140 3140 3140 3140 3140 3140 3140 3140 3141 3141 3141 3141 3142 3142 3142 3143 3143 3143 3143 3143 3143 3144 3144 3144 3144 3144 3144 3145 3145 3145 3146 3146 3147 3147 3147 3148 3148 3148 3148 3148 3148 3149 3149 3149 3150 3150 3150 3150 3150 3150 3151 3151 3151 3151 3150 3150 3150 3150 3150 3150 3150 3150 3150 3149 3149 3149 3149 3148 3148 3148 3148 3148 3148 3148 3147 3147 3147 3147 3147 3146 3146 3146 3146
3139 3139 3139 3139 3140 3140 3139 3139 3139 3139 3139 3139 3139 3139 3139 3139 3139 3138 3138 3138 3138 3138 3138 3138 3138 3139 3139 3139 3139 3140 3140 3140 3140 3141 3141 3141 3142 3142 3142 3142 3142 3143 3143 3143 3143 3143 3143 3143 3144 3144 3145 3145 3145 3145 3146 3147 3147 3147 3147 3147 3147 3148 3148 3148 3149 3149 3149 3149 3149 3150 3150 3150 3150 3150 3150 3150 3150 3150 3150 3149 3149 3149 3149 3149 3148 3148 3148 3148 3147 3147 3147 3147 3147 3147 3146 3146 3146 3146 3146 3145 3145 3145 3145
3136 3136 3136 3137 3137 3137 3138 3137 3137 3137 3137 3137 3137 3137 3137 3137 3137 3137 3137 3137 3136 3136 3136 3137 3136 3137 3137 3137 3138 3138 3138 3138 3139 3139 3140 3140 3140 3141 3141 3141 3141 3141 3142 3142 3142 3142 3142 3142 3143 3143 3143 3142 3143 3144 3145 3145 3146 3146 3146 3146 3146 3147 3147 3147 3147 3148 3148 3148 3148 3149 3149 3149 3150 3150 3150 3149 3149 3149 3149 3149 3149 3149 3148 3148 3148 3148 3147 3147 3147 3146 3146 3146 3146 3146 3146 3145 3145 3145 3145 3145 3145 3145 3144
3135 3135 3134 3135 3135 3135 3135 3135 3135 3135 3135 3135 3135 3135 3135 3135 3135 3135 3135 3135 3135 3135 3135 3135 3135 3135 3135 3136 3136 3136 3136 3137 3137 3138 3138 3139 3139 3139 3140 3140 3140 3140 3140 3141 3141 3141 3141 3141 3141 3141 3141 3141 3142 3143 3143 3144 3144 3145 3145 3145 3145 3145 3146 3146 3146 3146 3147 3147 3147 3148 3148 3148 3148 3149 3149 3149 3148 3148 3148 3148 3148 3148 3147 3147 3147 3147 3147 3146 3146 3146 3146 3145 3145 3145 3145 3145 3145 3145 3144 3144 3144 3144 3143
3132 3132 3132 3132 3133 3133 3133 3133 3133 3133 3133 3133 3133 3133 3133 3133 3133 3133 3133 3133 3133 3133 3134 3133 3134 3134 3134 3135 3135 3135 3135 3135 3136 3136 3137 3137 3137 3138 3138 3138 3139 3139 3139 3140 3140 3140 3140 3140 3139 3139 3140 3140 3141 3141 3142 3142 3143 3143 3144 3144 3145 3145 3145 3145 3145 3145 3145 3146 3146 3146 3147 3147 3147 3148 3148 3148 3147 3147 3147 3147 3147 3147 3147 3146 3146 3146 3146 3145 3145 3145 3145 3145 3145 3145 3144 3144 3144 3144 3144 3143 3143 3143 3142
3130 3130 3130 3130 3130 3130 3130 3131 3131 3131 3131 3131 3131 3132 3132 3132 3132 3131 3131 3131 3131 3132 3132 3132 3132 3132 3132 3133 3133 3134 3134 3134 3135 3135 3135 3136 3136 3136 3136 3137 3137 3137 3138 3138 3138 3139 3139 3138 3138 3139 3139 3139 3139 3140 3140 3140 3141 3142 3142 3143 3143 3144 3144 3144 3144 3144 3144 3145 3145 3145 3145 3146 3146 3146 3146 3146 3146 3146 3146 3146 3146 3146 3145 3145 3145 3145 3145 3145 3145 3144 3144 3144 3144 3144 3143 3143 3143 3143 3143 3142 3142 3142 3141
3127 3127 3128 3128 3128 3129 3129 3129 3129 3129 3130 3130 3130 3130 3130 3130 3130 3130 3130 3130 3130 3130 3130 3131 3131 3131 3131 3131 3132 3132 3132 3133 3133 3134 3134 3135 3135 3134 3135 3135 3135 3136 3136 3136 3137 3137 3137 3137 3138 3138 3138 3138 3138 3138 3139 3139 3139 3140 3140 3141 3141 3142 3142 3143 3143 3143 3143 3143 3144 3144 3144 3145 3145 3145 3145 3145 3145 3145 3145 3145 3145 3145 3145 3145 3144 3144 3144 3144 3144 3143 3143 3143 3143 3143 3142 3142 3142 3142 3141 3141 3141 3141 3140
3125 3125 3125 3126 3126 3126 3126 3127 3127 3127 3128 3128 3128 3129 3129 3129 3129 3129 3129 3128 3128 3129 3129 3129 3130 3130 3130 3130 3131 3131 3131 3131 3132 3132 3133 3133 3133 3133 3133 3134 3134 3134 3135 3135 3135 3135 3136 3136 3137 3136 3136 3137 3137 3137 3137 3138 3138 3139 3139 3139 3140 3140 3140 3141 3141 3142 3142 3142 3142 3143 3143 3144 3144 3144 3144 3144 3144 3144 3144 3144 3144 3144 3143 3143 3143 3143 3143 3143 3143 3142 3142 3142 3142 3142 3141 3141 3141 3141 3140 3140 3140 3140 3140
3122 3123 3123 3123 3124 3124 3124 3125 3125 3125 3125 3126 3127 3127 3127 3127 3127 3127 3127 3127 3127 3127 3127 3128 3128 3128 3129 3129 3130 3130 3130 3130 3130 3131 3132 3132 3132 3132 3132 3133 3133 3133 3133 3133 3134 3135 3135 3135 3135 3135 3135 3135 3135 3135 3136 3136 3137 3137 3137 3138 3138 3138 3139 3139 3140 3140 3140 3140 3141 3141 3142 3142 3143 3143 3143 3143 3143 3143 3143 3143 3142 3142 3142 3142 3142 3142 3142 3142 3141 3141 3141 3141 3141 3140 3140 3140 3140 3140 3140 3139 3139 3139 3138
3120 3120 3120 3120 3121 3121 3122 3122 3122 3123 3124 3124 3125 3125 3125 3125 3125 3126 3126 3126 3125 3125 3125 3125 3126 3127 3127 3128 3128 3128 3128 3128 3129 3129 3130 3130 3130 3130 3131 3131 3131 3131 3132 3132 3133 3134 3134 3134 3134 3134 3134 3134 3134 3135 3135 3135 3135 3135 3136 3136 3137 3137 3137 3137 3138 3138 3139 3139 3140 3140 3140 3141 3141 3141 3142 3142 3142 3142 3141 3141 3141 3141 3141 3141 3141 3141 3141 3140 3140 3140 3140 3140 3140 3140 3139 3139 3139 3139 3138 3138 3138 3137 3137
3117 3117 3117 3118 3118 3119 3119 3120 3120 3120 3121 3122 3123 3123 3123 3124 3124 3124 3124 3124 3124 3124 3123 3123 3124 3125 3125 3125 3126 3126 3126 3126 3127 3127 3128 3128 3129 3129 3129 3130 3130 3130 3130 3130 3131 3132 3132 3132 3133 3133 3133 3133 3133 3133 3133 3134 3134 3134 3134 3135 3135 3135 3135 3136 3136 3137 3137 3137 3138 3138 3139 3139 3140 3140 3140 3140 3140 3140 3140 3140 3140 3140 3140 3140 3140 3140 3140 3140 3139 3139 3139 3139 3139 3138 3138 3138 3138 3137 3137 3137 3137 3136 3136
3115 3115 3115 3115 3115 3116 3116 3117 3118 3118 3119 3120 3120 3121 3121 3121 3122 3122 3122 3122 3122 3122 3121 3121 3122 3123 3123 3124 3124 3124 3124 3125 3125 3125 3126 3126 3127 3127 3127 3127 3128 3128 3128 3129 3130 3130 3131 3131 3131 3131 3131 3132 3132 3132 3132 3132 3132 3132 3132 3133 3133 3134 3134 3134 3135 3135 3135 3136 3136 3137 3137 3138 3138 3139 3139 3139 3139 3139 3139 3139 3139 3139 3139 3139 3138 3138 3138 3138 3138 3138 3138 3138 3137 3137 3137 3137 3136 3136 3136 3136 3135 3135 3135
3112 3112 3112 3111 3112 3112 3114 3114 3115 3116 3117 3117 3118 3119 3119 3119 3119 3120 3120 3120 3120 3120 3120 3120 3120 3121 3121 3121 3122 3122 3122 3123 3123 3124 3124 3125 3125 3125 3125 3126 3126 3126 3127 3127 3128 3129 3129 3130 3130 3130 3130 3130 3130 3131 3131 3131 3131 3131 3131 3131 3132 3132 3133 3133 3133 3134 3134 3134 3135 3135 3135 3136 3137 3137 3137 3138 3138 3138 3138 3137 3137 3137 3137 3137 3137 3137 3137 3137 3137 3137 3136 3136 3136 3136 3136 3136 3135 3135 3135 3135 3134 3134 3133
3110 3109 3108 3107 3108 3109 3110 3112 3113 3114 3114 3115 3115 3116 3116 3116 3117 3117 3118 3118 3119 3119 3118 3118 3119 3119 3119 3120 3120 3120 3121 3121 3121 3122 3122 3123 3123 3123 3124 3124 3124 3125 3125 3126 3126 3127 3127 3128 3128 3129 3129 3129 3129 3129 3130 3130 3130 3130 3130 3130 3130 3130 3131 3131 3132 3132 3132 3132 3133 3133 3134 3135 3135 3135 3136 3136 3136 3136 3136 3136 3136 3136 3136 3136 3136 3136 3136 3135 3135 3135 3135 3135 3135 3135 3135 3135 3134 3134 3134 3133 3133 3133 3132
3107 3107 3109 3105 3103 3105 3107 3109 3110 3111 3112 3112 3113 3113 3114 3114 3114 3115 3116 3116 3117 3117 3117 3117 3117 3117 3117 3118 3118 3118 3119 3119 3120 3120 3120 3121 3121 3121 3122 3122 3123 3123 3124 3124 3125 3125 3126 3126 3127 3127 3127 3128 3128 3128 3128 3129 3129 3129 3129 3129 3129 3129 3130 3130 3130 3130 3130 3131 3131 3131 3132 3133 3134 3134 3134 3135 3135 3135 3135 3135 3135 3135 3135 3135 3135 3135 3134 3134 3134 3134 3134 3134 3134 3134 3134 3133 3133 3133 3132 3132 3132 3131 3131
3105 3106 3110 3104 3100 3100 3104 3106 3108 3109 3109 3110 3110 3110 3111 3111 3112 3112 3114 3114 3115 3115 3115 3115 3115 3115 3115 3116 3116 3116 3117 3117 3117 3118 3118 3119 3119 3120 3120 3120 3121 3121 3122 3123 3123 3123 3124 3125 3125 3125 3126 3126 3126 3127 3127 3127 3127 3127 3127 3128 3128 3128 3129 3129 3129 3129 3129 3129 3130 3130 3130 3131 3132 3133 3133 3133 3133 3133 3133 3133 3133 3133 3133 3133 3133 3133 3133 3133 3133 3133 3133 3133 3133 3132 3132 3132 3132 3131 3131 3131 3130 3130 3130
3103 3104 3106 3105 3101 3099 3102 3104 3105 3106 3106 3106 3107 3107 3108 3108 3109 3110 3111 3112 3113 3113 3113 3113 3113 3113 3114 3114 3114 3115 3115 3115 3115 3116 3116 3117 3117 3118 3118 3119 3119 3119 3120 3120 3121 3121 3122 3123 3123 3124 3124 3125 3125 3125 3125 3125 3125 3125 3126 3126 3126 3127 3127 3127 3127 3128 3128 3128 3128 3128 3129 3130 3130 3131 3131 3131 3131 3132 3132 3132 3132 3132 3132 3132 3132 3132 3132 3131 3131 3131 3131 3131 3131 3131 3131 3131 3131 3130 3130 3130 3129 3129 3128
3100 3101 3100 3105 3103 3100 3100 3101 3103 3103 3104 3104 3104 3104 3105 3105 3106 3107 3109 3110 3110 3111 3111 3111 3111 3111 3111 3112 3112 3112 3113 3113 3114 3114 3114 3115 3115 3115 3116 3116 3117 3117 3118 3118 3119 3120 3120 3121 3122 3122 3123 3123 3123 3123 3123 3124 3124 3124 3124 3124 3125 3125 3125 3126 3126 3126 3126 3126 3126 3127 3128 3128 3129 3130 3130 3130 3130 3130 3130 3130 3130 3130 3130 3130 3130 3130 3130 3130 3130 3130 3130 3130 3130 3130 3130 3130 3130 3129 3129 3128 3128 3127 3127
3097 3097 3098 3100 3100 3099 3098 3099 3100 3100 3100 3100 3100 3101 3101 3102 3103 3104 3106 3107 3108 3109 3109 3109 3109 3109 3110 3110 3110 3110 3111 3111 3111 3111 3112 3112 3113 3113 3114 3114 3115 3115 3115 3116 3116 3117 3118 3119 3120 3120 3120 3121 3121 3121 3121 3122 3122 3122 3122 3122 3122 3123 3123 3124 3125 3125 3125 3125 3125 3126 3126 3127 3127 3128 3128 3128 3128 3129 3129 3129 3129 3129 3129 3129 3129 3129 3129 3129 3129 3129 3129 3129 3129 3129 3129 3128 3128 3128 3127 3127 3126 3126 3125
3092 3093 3094 3095 3096 3096 3095 3096 3097 3097 3097 3097 3097 3097 3098 3098 3100 3101 3103 3105 3105 3106 3107 3107 3107 3107 3108 3108 3108 3109 3109 3109 3109 3109 3110 3110 3110 3111 3111 3112 3113 3113 3114 3114 3115 3115 3116 3116 3117 3118 3118 3119 3119 3119 3120 3120 3120 3120 3120 3120 3120 3121 3121 3122 3123 3123 3123 3124 3124 3125 3125 3125 3126 3126 3126 3127 3127 3127 3127 3127 3127 3127 3127 3127 3127 3127 3127 3128 3128 3128 3128 3127 3127 3127 3127 3127 3127 3126 3126 3125 3125 3124 3124
3088 3089 3090 3091 3093 3093 3092 3093 3093 3093 3093 3093 3093 3094 3094 3095 3096 3098 3100 3101 3103 3104 3105 3105 3105 3105 3105 3106 3106 3106 3107 3107 3107 3107 3107 3108 3108 3109 3109 3110 3111 3111 3112 3112 3113 3113 3114 3114 3115 3115 3116 3116 3117 3117 3118 3118 3118 3118 3119 3119 3119 3119 3120 3120 3121 3122 3122 3122 3123 3123 3124 3124 3125 3125 3125 3125 3125 3125 3126 3126 3126 3126 3126 3126 3126 3126 3126 3126 3126 3126 3126 3126 3126 3126 3126 3126 3125 3125 3124 3124 3123 3123 3122
3085 3085 3086 3087 3089 3089 3088 3089 3090 3090 3090 3090 3090 3090 3090 3091 3093 3094 3096 3098 3100 3101 3102 3103 3103 3103 3104 3104 3105 3105 3105 3105 3105 3105 3105 3106 3106 3106 3107 3108 3109 3110 3110 3111 3111 3112 3112 3113 3113 3114 3114 3115 3115 3115 3115 3116 3116 3117 3117 3117 3117 3117 3118 3119 3120 3120 3120 3121 3121 3122 3122 3123 3123 3123 3124 3124 3124 3124 3124 3124 3124 3125 3125 3125 3125 3125 3125 3125 3125 3125 3125 3125 3125 3125 3125 3124 3124 3123 3123 3122 3122 3121 3121
3081 3081 3082 3083 3084 3085 3085 3086 3086 3086 3086 3086 3086 3086 3087 3088 3089 3090 3093 3095 3096 3098 3099 3100 3101 3101 3102 3102 3103 3103 3103 3103 3103 3103 3104 3104 3105 3105 3105 3106 3107 3108 3109 3109 3110 3110 3110 3111 3111 3112 3112 3113 3113 3113 3114 3114 3115 3115 3115 3115 3115 3115 3116 3117 3118 3118 3119 3120 3120 3120 3121 3121 3122 3122 3122 3122 3122 3123 3123 3123 3123 3123 3123 3123 3123 3123 3123 3123 3123 3123 3123 3123 3123 3123 3123 3123 3122 3122 3121 3121 3120 3120 3120
3077 3078 3078 3079 3080 3081 3082 3083 3084 3084 3084 3083 3082 3083 3083 3084 3085 3087 3089 3091 3093 3095 3096 3097 3098 3099 3100 3100 3101 3101 3101 3101 3101 3102 3102 3103 3103 3103 3104 3104 3105 3106 3106 3107 3108 3108 3109 3109 3110 3110 3110 3110 3111 3112 3112 3113 3113 3113 3113 3113 3114 3114 3115 3115 3116 3117 3117 3118 3118 3119 3120 3120 3120 3121 3121 3121 3121 3121 3121 3121 3121 3121 3121 3121 3121 3121 3121 3122 3122 3122 3122 3122 3122 3122 3122 3121 3121 3120 3120 3119 3119 3118 3118
3074 3074 3075 3075 3076 3078 3079 3080 3081 3083 3082 3080 3079 3079 3080 3080 3082 3084 3086 3088 3090 3092 3094 3095 3096 3096 3097 3098 3099 3099 3100 3099 3100 3100 3100 3101 3101 3101 3102 3102 3103 3104 3105 3105 3105 3106 3107 3107 3107 3108 3108 3109 3109 3110 3110 3111 3111 3111 3112 3112 3112 3112 3113 3114 3115 3115 3116 3116 3117 3118 3118 3119 3119 3119 3120 3120 3120 3120 3120 3120 3120 3120 3120 3120 3120 3120 3120 3120 3120 3120 3120 3121 3121 3120 3120 3120 3119 3119 3118 3118 3117 3117 3117
3070 3070 3071 3072 3073 3074 3075 3077 3080 3080 3079 3077 3075 3075 3077 3078 3080 3081 3084 3086 3088 3090 3091 3093 3093 3094 3095 3095 3096 3097 3097 3097 3098 3098 3098 3099 3099 3100 3100 3101 3101 3102 3102 3103 3103 3104 3104 3105 3105 3105 3106 3106 3107 3107 3108 3108 3109 3109 3110 3110 3110 3111 3111 3112 3113 3114 3114 3115 3115 3116 3117 3117 3118 3118 3118 3118 3118 3118 3118 3118 3118 3118 3118 3118 3118 3119 3119 3119 3119 3119 3119 3119 3119 3119 3118 3118 3118 3117 3117 3116 3116 3115 3115
3066 3067 3067 3068 3069 3070 3072 3074 3076 3077 3076 3075 3073 3073 3075 3076 3077 3079 3081 3083 3085 3086 3088 3090 3090 3091 3092 3093 3094 3094 3095 3095 3096 3096 3096 3096 3097 3098 3099 3099 3100 3100 3100 3100 3101 3101 3102 3102 3103 3103 3104 3105 3105 3105 3106 3106 3107 3107 3108 3108 3109 3110 3110 3111 3112 3112 3113 3113 3114 3115 3115 3116 3116 3116 3117 3117 3117 3117 3117 3117 3117 3117 3117 3117 3117 3117 3117 3117 3117 3118 3118 3118 3118 3117 3117 3116 3116 3115 3115 3115 3115 3114 3114
3064 3063 3064 3065 3065 3067 3068 3070 3072 3074 3075 3074 3074 3073 3072 3073 3074 3075 3077 3079 3081 3083 3085 3086 3087 3088 3090 3090 3091 3092 3093 3093 3093 3094 3094 3094 3095 3096 3097 3097 3097 3098 3098 3098 3099 3099 3100 3100 3100 3101 3102 3103 3103 3103 3104 3104 3105 3105 3105 3106 3107 3108 3109 3110 3110 3110 3111 3111 3112 3113 3114 3115 3115 3115 3115 3115 3115 3115 3115 3115 3115 3116 3116 3116 3116 3116 3116 3116 3116 3116 3116 3116 3116 3115 3115 3115 3114 3114 3114 3113 3113 3113 3113
3061 3061 3060 3061 3062 3063 3065 3066 3069 3070 3073 3072 3072 3072 3069 3070 3070 3071 3073 3076 3078 3079 3081 3083 3084 3086 3087 3088 3089 3090 3090 3090 3091 3091 3092 3093 3094 3095 3095 3095 3095 3095 3096 3096 3097 3097 3098 3098 3099 3099 3100 3100 3101 3101 3102 3102 3102 3103 3104 3104 3105 3106 3107 3108 3108 3109 3109 3110 3111 3112 3112 3113 3113 3114 3114 3114 3114 3114 3114 3114 3114 3114 3114 3114 3114 3114 3114 3115 3115 3115 3115 3114 3114 3114 3114 3113 3113 3112 3112 3112 3112 3111 3111
3058 3058 3058 3058 3059 3060 3061 3063 3065 3066 3068 3069 3069 3069 3068 3068 3068 3068 3070 3072 3075 3076 3078 3079 3081 3083 3084 3085 3086 3087 3087 3088 3088 3089 3090 3091 3092 3092 3092 3093 3093 3094 3095 3095 3095 3095 3095 3096 3097 3097 3098 3098 3099 3099 3100 3100 3100 3101 3102 3102 3103 3104 3105 3105 3106 3106 3107 3108 3109 3110 3111 3111 3112 3112 3112 3112 3112 3113 3113 3113 3113 3113 3113 3113 3113 3113 3113 3113 3113 3113 3112 3112 3112 3112 3112 3111 3111 3111 3111 3110 3110 3110 3110
3054 3055 3054 3055 3056 3057 3058 3059 3060 3062 3064 3067 3067 3067 3069 3068 3065 3064 3066 3069 3071 3073 3074 3076 3078 3080 3081 3082 3083 3084 3085 3086 3086 3087 3088 3088 3089 3090 3090 3091 3092 3092 3093 3093 3093 3093 3093 3094 3095 3096 3096 3097 3097 3097 3098 3098 3099 3099 3100 3100 3101 3102 3103 3104 3104 3105 3105 3106 3107 3109 3109 3110 3110 3110 3110 3111 3111 3111 3111 3111 3111 3111 3111 3111 3111 3112 3112 3112 3111 3111 3110 3110 3110 3110 3110 3110 3110 3109 3109 3109 3109 3109 3108
3049 3051 3052 3053 3053 3054 3055 3056 3057 3059 3060 3063 3064 3064 3065 3065 3063 3062 3064 3066 3067 3069 3071 3073 3075 3077 3078 3080 3080 3081 3083 3084 3085 3085 3085 3086 3087 3088 3088 3089 3090 3090 3090 3090 3090 3091 3092 3093 3094 3094 3094 3095 3095 3096 3096 3097 3097 3097 3098 3099 3100 3100 3101 3102 3102 3103 3104 3105 3106 3107 3108 3108 3108 3109 3109 3109 3109 3109 3109 3110 3110 3110 3110 3110 3110 3110 3110 3110 3110 3109 3109 3109 3109 3109 3109 3108 3108 3108 3108 3108 3107 3107 3107
3045 3046 3047 3048 3049 3051 3051 3052 3054 3055 3057 3058 3060 3061 3061 3061 3061 3061 3062 3063 3065 3066 3069 3070 3072 3074 3075 3077 3078 3080 3081 3081 3082 3083 3083 3084 3085 3085 3086 3087 3087 3088 3088 3089 3089 3090 3091 3091 3091 3092 3092 3093 3094 3094 3095 3095 3095 3096 3096 3097 3098 3099 3100 3100 3100 3101 3102 3103 3104 3105 3106 3106 3106 3107 3107 3107 3107 3107 3108 3108 3108 3108 3108 3109 3109 3109 3109 3108 3108 3108 3107 3107 3107 3107 3107 3107 3107 3106 3106 3106 3106 3106 3105
3041 3042 3042 3044 3045 3046 3048 3050 3050 3051 3053 3055 3055 3056 3057 3057 3058 3059 3060 3061 3062 3064 3065 3067 3070 3071 3073 3075 3076 3077 3078 3079 3080 3081 3081 3082 3083 3083 3084 3084 3085 3086 3086 3087 3088 3088 3089 3089 3089 3090 3090 3091 3092 3092 3093 3094 3094 3095 3095 3096 3096 3097 3098 3099 3099 3100 3101 3102 3103 3104 3104 3105 3105 3105 3105 3105 3106 3106 3106 3106 3106 3107 3107 3107 3107 3107 3107 3106 3106 3106 3106 3106 3106 3106 3106 3105 3105 3105 3105 3105 3105 3104 3104
3037 3038 3039 3040 3041 3043 3044 3046 3048 3048 3049 3050 3052 3053 3055 3055 3055 3056 3057 3058 3060 3060 3063 3065 3067 3069 3071 3072 3074 3075 3075 3077 3078 3079 3079 3080 3080 3080 3081 3082 3083 3084 3085 3085 3085 3086 3086 3087 3087 3088 3089 3090 3090 3090 3091 3092 3092 3093 3094 3094 3095 3096 3096 3097 3098 3099 3100 3100 3101 3102 3102 3103 3103 3104 3104 3104 3104 3104 3104 3105 3105 3105 3105 3105 3105 3105 3105 3105 3105 3105 3105 3105 3105 3104 3104 3104 3104 3104 3104 3103 3103 3103 3102
3033 3034 3036 3037 3038 3039 3040 3042 3045 3047 3047 3048 3050 3051 3052 3053 3053 3053 3055 3056 3057 3058 3060 3062 3064 3066 3068 3070 3070 3071 3073 3074 3075 3076 3077 3077 3077 3078 3079 3080 3081 3082 3083 3083 3084 3084 3085 3085 3086 3087 3087 3088 3088 3089 3090 3090 3091 3091 3092 3093 3094 3095 3095 3096 3096 3097 3098 3099 3100 3100 3101 3101 3101 3102 3102 3102 3102 3102 3103 3103 3103 3104 3104 3104 3104 3103 3103 3103 3103 3103 3103 3103 3103 3103 3103 3102 3102 3102 3102 3102 3102 3101 3100
3029 3030 3031 3033 3035 3036 3037 3038 3040 3043 3045 3046 3047 3049 3049 3048 3050 3051 3053 3054 3055 3055 3056 3058 3060 3063 3065 3066 3067 3069 3070 3072 3073 3074 3075 3075 3075 3076 3077 3078 3079 3080 3080 3081 3082 3082 3083 3084 3084 3085 3085 3086 3086 3087 3088 3089 3089 3090 3091 3091 3092 3093 3094 3095 3095 3096 3097 3098 3098 3099 3099 3100 3100 3100 3100 3100 3100 3101 3101 3101 3102 3102 3102 3102 3102 3101 3101 3101 3101 3101 3101 3101 3101 3101 3101 3101 3101 3101 3101 3100 3100 3100 3099
3025 3026 3027 3029 3030 3032 3034 3035 3035 3037 3040 3042 3044 3044 3045 3045 3047 3049 3050 3051 3052 3053 3054 3055 3058 3060 3062 3063 3065 3066 3068 3070 3070 3071 3072 3072 3073 3074 3075 3076 3077 3078 3078 3079 3080 3080 3081 3082 3082 3083 3084 3084 3085 3085 3086 3087 3088 3088 3089 3090 3090 3091 3092 3093 3094 3095 3095 3096 3097 3097 3097 3098 3098 3098 3099 3099 3099 3099 3100 3100 3100 3100 3100 3100 3100 3100 3100 3100 3100 3100 3100 3100 3100 3100 3100 3100 3100 3099 3099 3099 3098 3098 3097